{"data":{"norad_id":57467,"epoch":"2026-09-20T11:12:06.476832Z","epoch_age_seconds":130520,"freshness":"FRESH","line1":"1 57467U 23107L   26263.46674163 -.00000316  00000+0 -19370-5 0  9994","line2":"2 57467  43.0048 316.2849 0001491 264.1900  95.8781 15.27578507174939","mean_motion":15.27578507,"eccentricity":0.0001491,"inclination_deg":43.0048,"raan_deg":316.2849,"arg_perigee_deg":264.19,"mean_anomaly_deg":95.8781,"bstar":-1.937e-6,"rev_number":17493,"period_min":94.266840846563,"perigee_km":482.03056310891,"apogee_km":484.07657013588,"semimajor_km":6861.1905666224,"source":"CELESTRAK","updated_at":"2026-09-21T09:00:33.630066Z"}}